FW4441 Weather Reports


Display with metric or nautical units.
time (UTC)temp
F
wind
direction
speed
MPH
gust
MPH
rain 1hr
in
rain 24hr
in
rain mn
in
humidity
%
barometer
mb
20260507164607 59 269 7.0 14.0 0.00 0.00 0.00 62 1016.3
20260507163031 59 273 8.0 17.0 0.00 0.00 0.00 63 1016.5
20260507161533 58 275 7.0 18.0 0.00 0.00 0.00 64 1016.5
20260507153028 55 258 10.0 20.0 0.00 0.00 0.00 70 1016.6
20260507151603 55 262 10.0 18.0 0.00 0.00 0.00 72 1016.6
20260507150037 53 266 10.0 21.0 0.00 0.00 0.00 75 1016.6
20260507144534 52 265 10.0 21.0 0.00 0.00 0.00 79 1016.7
20260507143031 51 286 8.0 20.0 0.00 0.00 0.00 81 1016.7
20260507141531 50 307 8.0 14.0 0.00 0.00 0.00 83 1016.7
20260507140032 50 341 10.0 15.0 0.00 0.00 0.00 84 1016.5
20260507134533 49 360 9.0 14.0 0.00 0.00 0.00 85 1016.3
20260507131645 49 340 6.0 11.0 0.00 0.00 0.00 84 1016.1
20260507130033 50 312 5.0 10.0 0.00 0.00 0.00 84 1016.1
20260507124529 50 306 4.0 7.0 0.00 0.00 0.00 83 1016.0
20260507123107 50 332 5.0 8.0 0.00 0.00 0.00 82 1016.1
20260507121554 51 343 3.0 7.0 0.00 0.00 0.00 82 1016.2
20260507120030 51 324 4.0 10.0 0.00 0.00 0.00 82 1016.1
20260507114606 51 302 6.0 12.0 0.00 0.00 0.00 81 1015.9
20260507113030 52 261 7.0 17.0 0.00 0.00 0.00 81 1015.8
20260507111530 52 258 9.0 19.0 0.00 0.00 0.00 81 1015.6
20260507110032 52 267 7.0 18.0 0.00 0.00 0.00 82 1015.6
20260507104532 52 274 5.0 14.0 0.00 0.00 0.00 82 1015.6
20260507101531 52 248 7.0 14.0 0.00 0.00 0.00 81 1015.7
20260507100040 53 250 9.0 18.0 0.00 0.00 0.00 80 1015.7
20260507094531 53 252 10.0 19.0 0.00 0.00 0.00 80 1015.7
20260507093032 54 241 9.0 18.0 0.00 0.00 0.00 80 1015.7
20260507091530 54 244 9.0 18.0 0.00 0.00 0.00 80 1015.7
20260507090029 54 258 8.0 19.0 0.00 0.00 0.00 80 1015.8
20260507084530 54 233 6.0 14.0 0.00 0.00 0.00 80 1015.8
20260507081533 54 245 5.0 9.0 0.00 0.00 0.00 79 1015.8
20260507080029 54 240 3.0 7.0 0.00 0.00 0.00 79 1015.9
20260507074531 55 246 4.0 11.0 0.00 0.00 0.00 78 1016.0
20260507073032 56 255 6.0 13.0 0.00 0.00 0.00 78 1016.1
20260507071531 56 253 8.0 19.0 0.00 0.00 0.00 78 1016.1
20260507061530 57 240 6.0 13.0 0.00 0.00 0.00 78 1016.2
20260507060031 57 248 8.0 15.0 0.00 0.00 0.00 77 1016.2
20260507054607 58 252 10.0 18.0 0.00 0.00 0.00 77 1016.3
20260507053032 58 250 11.0 20.0 0.00 0.00 0.00 77 1016.5
20260507051530 58 248 9.0 20.0 0.00 0.00 0.00 76 1016.7
20260507050107 58 255 7.0 16.0 0.00 0.00 0.00 75 1016.7
20260507044531 58 264 8.0 19.0 0.00 0.00 0.00 74 1016.6
20260507043031 58 256 7.0 13.0 0.00 0.00 0.00 72 1016.6
20260507041530 58 303 7.0 13.0 0.00 0.00 0.00 68 1016.2
20260507034531 61 238 5.0 13.0 0.00 0.00 0.00 61 1016.0
20260507033029 62 206 6.0 12.0 0.00 0.00 0.00 59 1015.8
20260507031556 64 204 4.0 9.0 0.00 0.00 0.00 56 1015.6
20260507030035 66 215 6.0 12.0 0.00 0.00 0.00 53 1015.6
20260507024530 66 213 8.0 16.0 0.00 0.00 0.00 52 1015.5
20260507023029 67 219 8.0 17.0 0.00 0.00 0.00 52 1015.3
20260507021532 67 240 8.0 17.0 0.00 0.00 0.00 51 1015.3
20260507020032 68 251 11.0 16.0 0.00 0.00 0.00 50 1015.2
20260507014529 68 267 10.0 19.0 0.00 0.00 0.00 51 1015.1
20260507013029 68 270 11.0 22.0 0.00 0.00 0.00 50 1015.1
20260507010032 67 254 12.0 24.0 0.00 0.00 0.00 51 1015.1
20260507004530 67 269 12.0 24.0 0.00 0.00 0.00 52 1015.1
20260507003031 67 276 12.0 23.0 0.00 0.00 0.00 52 1015.0
20260507001531 67 273 12.0 24.0 0.00 0.00 0.00 53 1014.9
20260507000031 66 293 10.0 18.0 0.00 0.00 0.00 55 1014.9
20260506234531 67 300 12.0 19.0 0.00 0.00 0.00 54 1014.8
20260506233032 67 303 10.0 20.0 0.00 0.00 0.00 53 1014.9
20260506231530 67 298 11.0 24.0 0.00 0.00 0.00 52 1014.9
20260506230030 69 287 12.0 21.0 0.00 0.00 0.00 50 1015.0
20260506223031 74 288 12.0 22.0 0.00 0.00 0.00 47 1014.9
20260506221531 75 280 12.0 21.0 0.00 0.00 0.00 47 1014.9
20260506220033 74 275 13.0 25.0 0.00 0.00 0.00 48 1014.8
20260506214532 73 269 15.0 25.0 0.00 0.00 0.00 49 1014.9
20260506213106 73 278 13.0 25.0 0.00 0.00 0.00 50 1014.9
20260506210034 73 288 10.0 21.0 0.00 0.00 0.00 52 1015.0
20260506204531 72 299 11.0 21.0 0.00 0.00 0.00 52 1015.1
20260506203030 72 300 12.0 22.0 0.00 0.00 0.00 53 1015.4
20260506201540 72 286 13.0 25.0 0.00 0.00 0.00 53 1015.4
20260506200029 71 284 11.0 23.0 0.00 0.00 0.00 54 1015.5
20260506194535 70 277 13.0 27.0 0.00 0.00 0.00 55 1015.5
20260506193029 70 275 14.0 26.0 0.00 0.00 0.00 56 1015.5
20260506191532 69 277 13.0 27.0 0.00 0.00 0.00 58 1015.7
20260506190031 68 282 12.0 21.0 0.00 0.00 0.00 59 1015.7
20260506184608 69 264 15.0 25.0 0.00 0.00 0.00 59 1015.7
20260506183030 69 265 14.0 26.0 0.00 0.00 0.00 59 1015.5
20260506181530 68 268 12.0 28.0 0.00 0.00 0.00 60 1015.6
20260506173029 67 275 12.0 23.0 0.00 0.00 0.00 62 1015.8
20260506171530 68 263 11.0 23.0 0.00 0.00 0.00 62 1015.6
20260506170032 67 262 8.0 17.0 0.00 0.00 0.00 63 1015.6